This is the latest recevied weather packets stored in our database for station/object Seibranz. If no packets are shown the sender has not sent any weather packets the latest 10 day(s).
| Time | Temp. | Humidity | Pressure | Rain* | Wind** | Luminosity | Snow |
|---|---|---|---|---|---|---|---|
| 1787945534 | 15° C | 91% | 1015.1 hPa | 4.32 mm | - | - | - |
| 1787943732 | 15.56° C | 91% | 1014.3 hPa | 4.32 mm | - | - | - |
| 1787941931 | 16.11° C | 92% | 1014 hPa | 3.81 mm | - | - | - |
| 1787940131 | 16.67° C | 91% | 1013.6 hPa | 3.3 mm | - | - | - |
| 1787938334 | 16.67° C | 88% | 1013.1 hPa | 3.3 mm | - | - | - |
| 1787936532 | 17.22° C | 85% | 1012.7 hPa | 3.3 mm | - | - | - |
| 1787934731 | 17.22° C | 85% | 1013.1 hPa | 3.3 mm | - | - | - |
| 1787932931 | 17.78° C | 85% | 1012.3 hPa | 3.3 mm | - | - | - |
| 1787931130 | 18.33° C | 84% | 1012 hPa | 3.3 mm | - | - | - |
| 1787929330 | 17.78° C | 86% | 1011.9 hPa | 3.3 mm | - | - | - |
| 1787927530 | 17.22° C | 88% | 1012.4 hPa | 3.3 mm | - | - | - |
| 1787925730 | 17.78° C | 90% | 1012.3 hPa | 3.05 mm | - | - | - |
| 1787923930 | 18.33° C | 89% | 1012.3 hPa | 3.05 mm | - | - | - |
| 1787922130 | 18.33° C | 91% | 1012.3 hPa | 3.05 mm | - | - | - |
| 1787920330 | 17.78° C | 92% | 1012.2 hPa | 3.05 mm | - | - | - |
| 1787918530 | 17.22° C | 91% | 1013.1 hPa | 2.54 mm | - | - | - |
| 1787916730 | 18.89° C | 81% | 1012.7 hPa | 1.52 mm | - | - | - |
| 1787914930 | 21.67° C | 75% | 1011.7 hPa | 1.52 mm | - | - | - |
| 1787913130 | 20.56° C | 83% | 1011.1 hPa | 1.52 mm | - | - | - |
| 1787911331 | 20° C | 86% | 1010.7 hPa | 1.52 mm | - | - | - |
| 1787909530 | 21.67° C | 87% | 1010.5 hPa | 1.52 mm | - | - | - |
| 1787907730 | 22.78° C | 76% | 1008 hPa | 0 mm | - | - | - |
| 1787905930 | 24.44° C | 76% | 1006.3 hPa | 0 mm | - | - | - |
| 1787904130 | 23.33° C | 76% | 1006.6 hPa | 0 mm | - | - | - |
| 1787902333 | 22.22° C | 75% | 1008 hPa | 0 mm | - | - | - |
* Rain since midnight (hover to see other rain measurements)
** Current wind speed in m/s (hover to see current wind gust speed)